Total_Precipitation_Accumulation
0.46 0.44 0.53 0.76 0.87 0.78 0.81 0.91 1.18 1.06 0.95 0.97 0.97 1.01 1.02 0.99 1.00 1.02 1.07 1.07 1.03 1.07 1.14 1.27 1.36 1.38 1.43 1.47 1.51 1.62 1.72 1.75 1.75 1.63 1.51 1.46 1.49 1.32 1.33 1.42 1.43 1.45 1.50 1.57
0.28 0.26 0.37 0.62 0.75 0.77 0.74 0.73 0.75 0.67 0.69 0.64 0.63 0.70 0.76 0.81 0.75 0.77 0.85 0.86 0.85 0.85 0.89 0.98 0.93 0.97 1.03 1.18 1.34 1.50 1.56 1.56 1.54 1.47 1.48 1.44 1.37 1.31 1.29 1.31 1.36 1.38 1.38 1.52
0.38 0.29 0.40 0.67 0.69 0.72 0.57 0.43 0.41 0.49 0.52 0.47 0.47 0.58 0.66 0.74 0.75 0.72 0.73 0.74 0.77 0.78 0.76 0.81 0.81 0.86 0.91 1.00 1.17 1.31 1.36 1.32 1.24 1.21 1.24 1.28 1.27 1.29 1.30 1.29 1.30 1.33 1.28 1.37
0.56 0.52 0.77 0.88 0.69 0.59 0.51 0.39 0.30 0.31 0.35 0.37 0.40 0.51 0.59 0.65 0.72 0.68 0.64 0.65 0.70 0.72 0.71 0.74 0.82 0.89 0.97 1.03 1.04 1.13 1.23 1.22 1.17 1.12 1.09 1.11 1.15 1.23 1.31 1.27 1.24 1.27 1.24 1.18
0.75 0.72 0.73 0.69 0.52 0.50 0.58 0.59 0.36 0.29 0.28 0.29 0.32 0.44 0.52 0.58 0.60 0.54 0.50 0.48 0.49 0.52 0.54 0.61 0.68 0.75 0.79 0.83 0.84 0.88 0.95 1.00 0.99 0.94 1.00 1.08 1.07 1.21 1.32 1.23 1.22 1.18 1.19 1.13
0.83 0.85 0.87 0.66 0.37 0.33 0.47 0.78 0.46 0.31 0.24 0.22 0.29 0.45 0.46 0.45 0.45 0.39 0.36 0.34 0.32 0.37 0.39 0.44 0.52 0.66 0.72 0.69 0.64 0.68 0.74 0.76 0.82 0.84 0.90 1.00 1.10 1.20 1.25 1.22 1.21 1.14 1.12 1.08
0.89 1.03 1.03 0.72 0.41 0.38 0.74 0.87 0.48 0.33 0.26 0.25 0.30 0.31 0.32 0.34 0.37 0.31 0.32 0.32 0.30 0.31 0.36 0.42 0.49 0.58 0.62 0.66 0.63 0.63 0.69 0.71 0.75 0.78 0.83 0.97 1.10 1.08 1.04 1.06 1.11 1.10 1.11 1.05
1.10 1.34 1.39 0.87 0.67 0.72 0.73 0.51 0.38 0.29 0.28 0.28 0.30 0.26 0.26 0.28 0.28 0.25 0.26 0.29 0.29 0.30 0.35 0.44 0.47 0.48 0.51 0.54 0.55 0.58 0.61 0.66 0.66 0.66 0.71 0.79 0.87 0.96 0.96 0.96 1.00 0.99 0.98 0.97
1.20 1.22 1.02 0.77 0.69 0.62 0.55 0.46 0.34 0.30 0.29 0.29 0.29 0.26 0.26 0.24 0.23 0.20 0.22 0.26 0.30 0.35 0.41 0.46 0.49 0.47 0.47 0.48 0.52 0.57 0.61 0.64 0.61 0.60 0.63 0.69 0.77 0.88 0.96 0.98 0.96 0.93 0.85 0.81
0.67 0.68 0.61 0.49 0.42 0.44 0.42 0.40 0.32 0.29 0.29 0.31 0.31 0.28 0.26 0.22 0.21 0.21 0.21 0.24 0.28 0.37 0.41 0.46 0.47 0.47 0.47 0.47 0.48 0.52 0.58 0.64 0.65 0.66 0.68 0.69 0.72 0.78 0.91 0.97 0.89 0.80 0.80 0.80
0.49 0.45 0.44 0.39 0.35 0.35 0.36 0.32 0.27 0.26 0.28 0.30 0.31 0.29 0.26 0.25 0.26 0.24 0.24 0.25 0.29 0.35 0.40 0.44 0.50 0.48 0.48 0.48 0.46 0.49 0.56 0.61 0.62 0.66 0.70 0.70 0.66 0.65 0.73 0.79 0.85 0.87 0.85 0.86
0.48 0.36 0.40 0.42 0.36 0.32 0.33 0.29 0.27 0.29 0.33 0.32 0.27 0.26 0.25 0.26 0.31 0.32 0.30 0.31 0.33 0.34 0.38 0.40 0.46 0.51 0.52 0.56 0.55 0.53 0.56 0.60 0.61 0.63 0.69 0.69 0.66 0.66 0.68 0.70 0.79 0.81 0.80 0.81
0.33 0.25 0.28 0.31 0.27 0.25 0.26 0.23 0.23 0.26 0.31 0.33 0.28 0.27 0.24 0.25 0.31 0.34 0.35 0.38 0.42 0.43 0.43 0.41 0.43 0.47 0.51 0.58 0.61 0.64 0.64 0.66 0.67 0.67 0.65 0.65 0.69 0.73 0.70 0.65 0.65 0.67 0.67 0.65
0.19 0.19 0.24 0.24 0.23 0.21 0.21 0.20 0.23 0.25 0.27 0.29 0.29 0.26 0.25 0.27 0.32 0.33 0.34 0.40 0.43 0.45 0.46 0.47 0.46 0.49 0.57 0.62 0.66 0.71 0.78 0.86 0.81 0.73 0.70 0.67 0.69 0.75 0.76 0.76 0.71 0.62 0.61 0.65
0.16 0.19 0.23 0.21 0.20 0.20 0.19 0.19 0.21 0.22 0.25 0.26 0.25 0.26 0.30 0.33 0.34 0.36 0.36 0.35 0.37 0.37 0.38 0.45 0.46 0.47 0.54 0.56 0.60 0.66 0.75 0.84 0.86 0.83 0.79 0.78 0.79 0.85 0.84 0.75 0.68 0.67 0.64 0.65
0.21 0.19 0.18 0.16 0.18 0.18 0.15 0.17 0.20 0.20 0.22 0.24 0.24 0.30 0.37 0.40 0.39 0.41 0.37 0.32 0.32 0.32 0.35 0.44 0.50 0.48 0.51 0.52 0.52 0.58 0.62 0.75 0.85 0.88 0.87 0.86 0.90 0.91 0.89 0.81 0.70 0.67 0.65 0.64
0.23 0.26 0.26 0.22 0.20 0.19 0.19 0.19 0.19 0.20 0.20 0.20 0.25 0.33 0.38 0.39 0.38 0.41 0.41 0.39 0.37 0.35 0.36 0.42 0.49 0.51 0.53 0.53 0.53 0.55 0.57 0.62 0.72 0.76 0.78 0.79 0.84 0.88 0.89 0.86 0.79 0.73 0.70 0.69
0.21 0.25 0.29 0.27 0.23 0.23 0.23 0.23 0.22 0.21 0.21 0.21 0.25 0.35 0.42 0.42 0.44 0.46 0.48 0.47 0.43 0.38 0.38 0.43 0.47 0.49 0.53 0.58 0.60 0.62 0.61 0.62 0.66 0.69 0.72 0.75 0.79 0.80 0.83 0.86 0.84 0.80 0.78 0.80
0.21 0.22 0.24 0.23 0.21 0.22 0.23 0.23 0.25 0.27 0.27 0.26 0.27 0.35 0.43 0.51 0.56 0.54 0.53 0.54 0.53 0.54 0.53 0.55 0.61 0.54 0.55 0.63 0.67 0.63 0.62 0.62 0.63 0.69 0.71 0.77 0.80 0.77 0.79 0.79 0.78 0.76 0.74 0.77
0.27 0.30 0.32 0.30 0.25 0.22 0.23 0.25 0.25 0.28 0.33 0.33 0.32 0.34 0.43 0.51 0.54 0.54 0.53 0.55 0.61 0.68 0.67 0.69 0.68 0.60 0.60 0.65 0.70 0.64 0.65 0.67 0.71 0.75 0.73 0.72 0.76 0.79 0.80 0.79 0.80 0.78 0.78 0.81
0.35 0.41 0.40 0.37 0.29 0.24 0.24 0.25 0.26 0.29 0.32 0.32 0.33 0.37 0.46 0.56 0.57 0.56 0.55 0.58 0.60 0.65 0.68 0.75 0.72 0.70 0.69 0.76 0.81 0.74 0.73 0.73 0.77 0.81 0.82 0.81 0.82 0.82 0.83 0.85 0.86 0.89 0.90 0.91
0.38 0.39 0.36 0.35 0.31 0.27 0.27 0.26 0.26 0.26 0.28 0.31 0.33 0.38 0.48 0.59 0.64 0.61 0.58 0.62 0.67 0.75 0.74 0.73 0.72 0.80 0.88 0.86 0.75 0.76 0.80 0.82 0.85 0.85 0.87 0.89 0.92 0.92 0.90 0.92 0.93 0.93 0.94 0.96
0.36 0.36 0.40 0.41 0.39 0.35 0.32 0.31 0.32 0.31 0.32 0.35 0.38 0.41 0.47 0.53 0.64 0.71 0.63 0.57 0.60 0.70 0.69 0.71 0.77 0.85 0.91 0.82 0.76 0.76 0.77 0.78 0.79 0.82 0.87 0.92 0.94 0.97 1.00 1.00 0.98 0.95 0.98 1.01
0.31 0.33 0.38 0.42 0.41 0.40 0.40 0.40 0.41 0.41 0.40 0.40 0.42 0.44 0.48 0.52 0.57 0.66 0.63 0.62 0.68 0.71 0.64 0.73 0.83 0.89 0.86 0.72 0.74 0.80 0.83 0.81 0.83 0.89 0.94 0.95 0.95 0.97 1.01 1.05 1.06 1.04 1.06 1.10
0.26 0.26 0.31 0.37 0.40 0.40 0.39 0.38 0.40 0.43 0.44 0.44 0.46 0.48 0.50 0.54 0.61 0.68 0.65 0.60 0.69 0.74 0.71 0.82 0.90 0.90 0.82 0.81 0.81 0.85 0.92 0.96 1.00 1.04 1.03 1.04 1.04 1.05 1.06 1.09 1.12 1.14 1.13 1.13
0.25 0.24 0.27 0.32 0.36 0.36 0.35 0.35 0.38 0.41 0.45 0.44 0.45 0.50 0.54 0.56 0.61 0.70 0.74 0.70 0.69 0.76 0.78 0.82 0.87 0.89 0.87 0.94 0.97 0.97 0.98 1.02 1.03 1.01 1.02 1.06 1.08 1.06 1.05 1.06 1.07 1.09 1.11 1.10
0.27 0.26 0.27 0.31 0.33 0.32 0.33 0.37 0.41 0.43 0.47 0.48 0.49 0.50 0.52 0.56 0.62 0.70 0.78 0.78 0.73 0.74 0.81 0.87 0.90 0.92 0.94 0.97 1.00 1.04 1.06 1.07 1.07 1.06 1.06 1.11 1.15 1.17 1.13 1.10 1.11 1.12 1.15 1.17